Location: Newark
(48.1500°N, 13.1167°E)
Time: 23:44:51
(UTC+00:00)

XW-2D - Pass Details

Date: 13 December 2021
Orbit: 502 x 522 km, 97.5° (Epoch: 19 January)

Event Time Altitude Azimuth Distance (km) Brightness Sun altitude
Rises 04:59:20 0° 16° (NNE) 2,669 ? -17.4°
Reaches altitude 10° 05:01:29 10° 20° (NNE) 1,774 ? -17.1°
Maximum altitude 05:05:15 58° 100° (E) 617 ? -16.5°
Drops below altitude 10° 05:08:59 10° 181° (S) 1,751 ? -15.9°
Sets 05:11:06 0° 185° (S) 2,630 ? -15.5°
